Powrót do katalogu

STARLINK-35764

AktywnyŁącznośćVLEO
NORAD 67109·PAYLOAD·🇺🇸 United States

Wystrzelony Dec 15, 2025 z Cape Canaveral Space Force Station

Loading…

Następne Przeloty (najbliższe 24 godziny)

TLE

ŚwieżeSource: CelesTrak SupGP

Epoka: Sep 14, 2026, 21:40 UTC

1 67109C 25299H   26257.90326389 -.00025996  00000+0 -94143-3 0  2575
2 67109  43.0015 180.2898 0001122 264.0241 162.1461 15.27596204    12

Śledź STARLINK-35764 w czasie rzeczywistym z AllMySat

Download on the App Store